TOURFACTS.DK  
Stats and Facts from Tour de France.

Tour de France 2018 starts in 225 days
  Riders   Stages   Teams   Summits   Yearly  


 
Search by year

 2017 - St. 21:  14824 starters.
  5131 different riders.
  634 teams.
  2232 stages.
  454 restdays.
  439589.60 km.
  5653 abandonnees.


Top 3
Christopher Froome86:20:55
Rigoberto Uran86:21:49
Romain Bardet86:23:15
Warren Barguil169 pt.
Primoz Roglic80 pt.
Thomas De Gendt64 pt.
Michael Matthews359 pt.
André Greipel234 pt.
Edvald Boasson Hagen220 pt.
Simon Yates86:27:09
Louis Meintjes86:29:15
Emanuel Buchmann86:54:16
Facts from Tour de France 2016
  |   Stages.  |   Stage winners.  |   Days in yellow  |   Average speed.  |   Route.  |   Teams.  |   All riders.  |   Rookies.  |   Withdrawls.  |  

  |   GC.  |   Polka  |   Green  |   White  |   Summits. (In tour)  |   Summits. (Points)  |   Miscellaneous.  |  

Stage 17 on 20 - 07 - 2016
         Owning:    Christopher Froome      Rafal Majka      Peter Sagan      Adam Yates  

Pick a stage:  1 2 3 4 5 6 7 8 9 10 11 12 13 14 15 16 17 18 19 20 21
  BernFinhaut-Emosson | Dist: 184.00 km.
Cat: 3Côte de SaanenmöserPOLRafal Majka
2 points
 
Cat: 3Col des MossesPOLRafal Majka
2 points
 
Cat: 1Col de la ForclazPOLRafal Majka
10 points
 
Cat: HFinhaut-EmossonRUSIlnur Zakarin
50 points
 

Average speed for all riders in stage:  36,262 km./hr.
    Place:Name:Team:Time:Km/h:
RUSIlnur ZakarinRUSTeam Katusha04:36:33  +  00:00:00=39,920 
COLJarlinson Pantano GomezCHEIAM Cycling04:37:28  +  00:00:55=39,789 
POLRafal MajkaRUSTinkoff04:37:59  +  00:01:26=39,715 
4 HRVKristijan DurasekITALampre-Merida04:38:05  +  00:01:32=39,700 
5 FRABrice FeilluFRAFortuneo - Vital Concept04:39:06  +  00:02:33=39,556 
6 FRAThomas VoecklerFRADirect Energie04:39:19  +  00:02:46=39,525 
7 ITADomenico PozzovivoFRAAg2r La Mondiale04:39:23  +  00:02:50=39,516 
8 NEDStef ClementCHEIAM Cycling04:39:30  +  00:02:57=39,499 
9 SUISteve MorabitoFRAFDJ04:41:11  +  00:04:38=39,263 
10 AUSRichie PorteUSABMC Racing Team04:44:32  +  00:07:59=38,800 
11 KENChristopher FroomeGBRSky Procycling04:44:32  +  00:07:59=38,800 
12 ENGAdam YatesAUSORICA BikeExchange04:44:40  +  00:08:07=38,782 
13 FRARomain BardetFRAAg2r La Mondiale04:44:43  +  00:08:10=38,775 
14 ITAFabio AruKAZAstana Pro Team04:44:51  +  00:08:18=38,757 
15 RSALouis MeintjesITALampre-Merida04:44:51  +  00:08:18=38,757 
16 COLNairo QuintanaESPMovistar Team04:45:00  +  00:08:27=38,737 
17 NEDWout PoelsGBRSky Procycling04:45:12  +  00:08:39=38,710 
18 NEDBauke MollemaUSATrek – Segafredo04:45:12  +  00:08:39=38,710 
19 ENGDaniel MartinBELEtixx - Quick Step04:45:19  +  00:08:46=38,694 
20 ESPMikel NieveGBRSky Procycling04:45:30  +  00:08:57=38,669 
21 URSTanel KangertKAZAstana Pro Team04:45:44  +  00:09:11=38,637 
22 ESPJoaquim RodriguezRUSTeam Katusha04:45:44  +  00:09:11=38,637 
23 CZERoman KreuzigerRUSTinkoff04:46:11  +  00:09:38=38,577 
24 SUISébastien ReichenbachFRAFDJ04:46:11  +  00:09:38=38,577 
25 ESPAlejandro ValverdeESPMovistar Team04:46:34  +  00:10:01=38,525 
26 COLSergio Luis HenaoGBRSky Procycling04:46:48  +  00:10:15=38,494 
27 BELGreg Van AvermaetUSABMC Racing Team04:47:25  +  00:10:52=38,411 
28 ESPDaniel MorenoESPMovistar Team04:47:49  +  00:11:16=38,358 
29 BELSerge PauwelsZAFDimension Data04:48:48  +  00:12:15=38,227 
30 KAZAlexey LutsenkoKAZAstana Pro Team04:48:48  +  00:12:15=38,227 
31 ESPHaimar ZubeldiaUSATrek – Segafredo04:49:17  +  00:12:44=38,163 
32 ITADiego RosaKAZAstana Pro Team04:50:27  +  00:13:54=38,010 
33 FRATony GallopinBELLotto Soudal04:50:49  +  00:14:16=37,962 
34 GEREmanuel BuchmannDEUBora-Argon 1804:51:53  +  00:15:20=37,823 
35 FRAPierre RollandUSATeam Cannondale Drapac04:51:53  +  00:15:20=37,823 
36 FRAAlexis VuillermozFRAAg2r La Mondiale04:51:53  +  00:15:20=37,823 
37 WALGeraint ThomasGBRSky Procycling04:52:00  +  00:15:27=37,808 
38 ESPMikel Landa MeanaGBRSky Procycling04:53:13  +  00:16:40=37,651 
39 ITAVincenzo NibaliKAZAstana Pro Team04:53:13  +  00:16:40=37,651 
40 ITADamiano CarusoUSABMC Racing Team04:53:13  +  00:16:40=37,651 
41 USAPeter StetinaUSATrek – Segafredo04:53:44  +  00:17:11=37,585 
42 BELThomas De GendtBELLotto Soudal04:57:07  +  00:20:34=37,157 
43 FRAAnthony RouxFRAFDJ04:57:24  +  00:20:51=37,122 
44 LUXFränk SchleckUSATrek – Segafredo04:57:29  +  00:20:56=37,111 
45 SLOJan PolancITALampre-Merida04:57:29  +  00:20:56=37,111 
46 SUIJakob FuglsangKAZAstana Pro Team04:58:20  +  00:21:47=37,006 
47 FRAWarren BarguilDEUTeam Giant Alpecin04:58:22  +  00:21:49=37,001 
48 ESPAlberto LosadaRUSTeam Katusha04:58:38  +  00:22:05=36,968 
49 ESPLuis Angel MateFRACofidis – Solutions Crédits05:00:14  +  00:23:41=36,771 
50 FRAJérôme CoppelCHEIAM Cycling05:01:38  +  00:25:05=36,601 
51 COLWinner AnaconaESPMovistar Team05:02:03  +  00:25:30=36,550 
52 FRAAmaël MoinardUSABMC Racing Team05:02:30  +  00:25:57=36,496 
53 FRAJulian AlaphilippeBELEtixx - Quick Step05:02:30  +  00:25:57=36,496 
54 NEDWilco KeldermanNLDTeam Lotto NL - Jumbo05:02:48  +  00:26:15=36,460 
55 NEDTimo RoosenNLDTeam Lotto NL - Jumbo05:02:48  +  00:26:15=36,460 
56 SUIReto HollensteinCHEIAM Cycling05:02:48  +  00:26:15=36,460 
57 FRAAnthony DelaplaceFRAFortuneo - Vital Concept05:02:48  +  00:26:15=36,460 
58 LUXBen GastauerFRAAg2r La Mondiale05:02:48  +  00:26:15=36,460 
59 RSADaryl ImpeyAUSORICA BikeExchange05:02:48  +  00:26:15=36,460 
60 POLBartosz HuzarskiDEUBora-Argon 1805:02:48  +  00:26:15=36,460 
61 ITAPaolo TiralongoKAZAstana Pro Team05:02:48  +  00:26:15=36,460 
62 AUSAdam HansenBELLotto Soudal05:02:48  +  00:26:15=36,460 
63 DENMichael ValgrenRUSTinkoff05:02:48  +  00:26:15=36,460 
64 USATejay Van GarderenUSABMC Racing Team05:02:48  +  00:26:15=36,460 
65 CZEJan BártaDEUBora-Argon 1805:02:48  +  00:26:15=36,460 
66 ESPLuis León SánchezKAZAstana Pro Team05:02:48  +  00:26:15=36,460 
67 JPNYukiya ArashiroITALampre-Merida05:02:48  +  00:26:15=36,460 
68 BELJasper StuyvenUSATrek – Segafredo05:03:42  +  00:27:09=36,352 
69 NEDLaurens ten DamDEUTeam Giant Alpecin05:04:32  +  00:27:59=36,252 
70 SVKPeter SaganRUSTinkoff05:05:36  +  00:29:03=36,126 
71 BELOliver NaesenCHEIAM Cycling05:06:59  +  00:30:26=35,963 
72 UKRAndriy GrivkoKAZAstana Pro Team05:06:59  +  00:30:26=35,963 
73 SUIMartin ElmigerCHEIAM Cycling05:06:59  +  00:30:26=35,963 
74 NEDDylan Van BaarleUSATeam Cannondale Drapac05:06:59  +  00:30:26=35,963 
75 ERIDaniel TeklehaimanotZAFDimension Data05:06:59  +  00:30:26=35,963 
76 FRAMickaël CherelFRAAg2r La Mondiale05:06:59  +  00:30:26=35,963 
77 DENChris Anker SørensenFRAFortuneo - Vital Concept05:06:59  +  00:30:26=35,963 
78 NEDTom DumoulinDEUTeam Giant Alpecin05:06:59  +  00:30:26=35,963 
79 FRAArthur VichotFRAFDJ05:06:59  +  00:30:26=35,963 
80 ESPMarkel IrizarUSATrek – Segafredo05:06:59  +  00:30:26=35,963 
81 FRAJérémy RoyFRAFDJ05:06:59  +  00:30:26=35,963 
82 SUIMichael SchärUSABMC Racing Team05:06:59  +  00:30:26=35,963 
83 SLOLuka PibernikITALampre-Merida05:06:59  +  00:30:26=35,963 
84 GERAndreas SchillingerDEUBora-Argon 1805:06:59  +  00:30:26=35,963 
85 USABrent BookwalterUSABMC Racing Team05:06:59  +  00:30:26=35,963 
86 FRAFabrice JeandesbozFRADirect Energie05:06:59  +  00:30:26=35,963 
87 ESPDaniel NavarroFRACofidis – Solutions Crédits05:06:59  +  00:30:26=35,963 
88 NEDRoy CurversDEUTeam Giant Alpecin05:06:59  +  00:30:26=35,963 
89 ESPImanol ErvitiESPMovistar Team05:06:59  +  00:30:26=35,963 
90 SUIGregory RastUSATrek – Segafredo05:06:59  +  00:30:26=35,963 
91 PORNelson OliveiraESPMovistar Team05:06:59  +  00:30:26=35,963 
92 USAAlex HowesUSATeam Cannondale Drapac05:06:59  +  00:30:26=35,963 
93 FRACyril GautierFRAAg2r La Mondiale05:06:59  +  00:30:26=35,963 
94 ESPJon Izaguirre InsaustiESPMovistar Team05:06:59  +  00:30:26=35,963 
95 BELJan BakelantsFRAAg2r La Mondiale05:06:59  +  00:30:26=35,963 
96 FRASylvain ChavanelFRADirect Energie05:06:59  +  00:30:26=35,963 
97 SUIMichael AlbasiniAUSORICA BikeExchange05:06:59  +  00:30:26=35,963 
98 RSAReinardt Janse Van RensburgZAFDimension Data05:06:59  +  00:30:26=35,963 
99 AUTGeorg PreidlerDEUTeam Giant Alpecin05:06:59  +  00:30:26=35,963 
100 ITACesare BenedettiDEUBora-Argon 1805:06:59  +  00:30:26=35,963 
101 HRVRobert KiserlovskiRUSTinkoff05:06:59  +  00:30:26=35,963 
102 GERPaul MartensNLDTeam Lotto NL - Jumbo05:06:59  +  00:30:26=35,963 
103 IRLChristopher Juul JensenAUSORICA BikeExchange05:06:59  +  00:30:26=35,963 
104 AUTPatrick KonradDEUBora-Argon 1805:06:59  +  00:30:26=35,963 
105 FRAWilliam BonnetFRAFDJ05:07:17  +  00:30:44=35,928 
106 GERSimon GeschkeDEUTeam Giant Alpecin05:07:20  +  00:30:47=35,922 
107 BLRVasil KiryienkaGBRSky Procycling05:07:31  +  00:30:58=35,900 
108 ITAMatteo TosattoRUSTinkoff05:07:31  +  00:30:58=35,900 
109 NEDTom-Jelte SlagterUSATeam Cannondale Drapac05:07:31  +  00:30:58=35,900 
110 SUIFabian CancellaraUSATrek – Segafredo05:08:04  +  00:31:31=35,836 
111 ESPAngel ViciosoRUSTeam Katusha05:08:04  +  00:31:31=35,836 
112 FRAFlorian VachonFRAFortuneo - Vital Concept05:08:04  +  00:31:31=35,836 
113 NEDAlbert TimmerDEUTeam Giant Alpecin05:08:08  +  00:31:35=35,829 
114 NEDRamon SinkeldamDEUTeam Giant Alpecin05:08:08  +  00:31:35=35,829 
115 NOREdvald Boasson HagenZAFDimension Data05:08:29  +  00:31:56=35,788 
116 NEDBert-Jan LindemanNLDTeam Lotto NL - Jumbo05:08:51  +  00:32:18=35,746 
117 NZLGeorge BennettNLDTeam Lotto NL - Jumbo05:08:56  +  00:32:23=35,736 
118 GERMarcus BurghardtUSABMC Racing Team05:09:20  +  00:32:47=35,690 
119 CZEPetr VakocBELEtixx - Quick Step05:09:45  +  00:33:12=35,642 
120 BELMaarten WynantsNLDTeam Lotto NL - Jumbo05:09:59  +  00:33:26=35,615 
121 CANAntoine DuchesneFRADirect Energie05:10:52  +  00:34:19=35,514 
122 AUSMathew HaymanAUSORICA BikeExchange05:13:29  +  00:36:56=35,217 
123 AUSMichael MatthewsAUSORICA BikeExchange05:13:29  +  00:36:56=35,217 
124 AUSLuke DurbridgeAUSORICA BikeExchange05:13:29  +  00:36:56=35,217 
125 FRAPierre-Luc PérichonFRAFortuneo - Vital Concept05:13:40  +  00:37:07=35,197 
126 WALLuke RoweGBRSky Procycling05:16:24  +  00:39:51=34,893 
127 GERRobert WagnerNLDTeam Lotto NL - Jumbo05:16:24  +  00:39:51=34,893 
128 BELSep VanmarckeNLDTeam Lotto NL - Jumbo05:16:24  +  00:39:51=34,893 
129 NEDDylan GroenewegenNLDTeam Lotto NL - Jumbo05:16:24  +  00:39:51=34,893 
130 BELIljo KeisseBELEtixx - Quick Step05:16:24  +  00:39:51=34,893 
131 ITAFabio SabatiniBELEtixx - Quick Step05:16:24  +  00:39:51=34,893 
132 ETHTsgabu Gebremaryan GrmayITALampre-Merida05:16:24  +  00:39:51=34,893 
133 PORRui CostaITALampre-Merida05:16:24  +  00:39:51=34,893 
134 ITAMatteo BonoITALampre-Merida05:16:24  +  00:39:51=34,893 
135 GERMarcel SiebergBELLotto Soudal05:16:24  +  00:39:51=34,893 
136 FRAGeoffrey SoupeFRACofidis – Solutions Crédits05:16:24  +  00:39:51=34,893 
137 FRAChristophe LaporteFRACofidis – Solutions Crédits05:16:24  +  00:39:51=34,893 
138 FRASamuel DumoulinFRAAg2r La Mondiale05:16:24  +  00:39:51=34,893 
139 ERINatnael Teweldemedhin BerhaneZAFDimension Data05:16:24  +  00:39:51=34,893 
140 GERMarcel KittelBELEtixx - Quick Step05:16:24  +  00:39:51=34,893 
141 FRARomain SicardFRADirect Energie05:16:24  +  00:39:51=34,893 
142 FRA Alexis GougeardFRAAg2r La Mondiale05:16:24  +  00:39:51=34,893 
143 USALawson CraddockUSATeam Cannondale Drapac05:16:24  +  00:39:51=34,893 
144 BELJulien VermoteBELEtixx - Quick Step05:16:24  +  00:39:51=34,893 
145 ITAOscar GattoRUSTinkoff05:16:24  +  00:39:51=34,893 
146 NORAlexander KristoffRUSTeam Katusha05:16:24  +  00:39:51=34,893 
147 ESPRubén PlazaAUSORICA BikeExchange05:16:24  +  00:39:51=34,893 
148 ARGEduardo SepulvedaFRAFortuneo - Vital Concept05:16:24  +  00:39:51=34,893 
149 BELJürgen RoelandtsBELLotto Soudal05:16:24  +  00:39:51=34,893 
150 SLOKristjan KorenUSATeam Cannondale Drapac05:16:24  +  00:39:51=34,893 
151 GERAndré GreipelBELLotto Soudal05:16:24  +  00:39:51=34,893 
152 GERTony MartinBELEtixx - Quick Step05:16:24  +  00:39:51=34,893 
153 BRAMaximilano RichezeBELEtixx - Quick Step05:16:24  +  00:39:51=34,893 
154 DENLars BakBELLotto Soudal05:16:24  +  00:39:51=34,893 
155 POLMaciej BodnarRUSTinkoff05:16:24  +  00:39:51=34,893 
156 AUSLeigh HowardCHEIAM Cycling05:16:24  +  00:39:51=34,893 
157 FRAAdrien PetitFRADirect Energie05:16:24  +  00:39:51=34,893 
158 FRANicolas EdetFRACofidis – Solutions Crédits05:16:24  +  00:39:51=34,893 
159 FRABryan CoquardFRADirect Energie05:16:24  +  00:39:51=34,893 
160 URSRamunas NavardauskasUSATeam Cannondale Drapac05:16:24  +  00:39:51=34,893 
161 FRAYohann GèneFRADirect Energie05:16:24  +  00:39:51=34,893 
162 FRACyril LemoineFRACofidis – Solutions Crédits05:16:24  +  00:39:51=34,893 
163 ITAJacopo GuarnieriRUSTeam Katusha05:16:24  +  00:39:51=34,893 
164 ENGIan StannardGBRSky Procycling05:16:24  +  00:39:51=34,893 
165 GERPaul VossDEUBora-Argon 1805:16:24  +  00:39:51=34,893 
166 ENGStephen CummingsZAFDimension Data05:16:24  +  00:39:51=34,893 
167 GERJohn DegenkolbDEUTeam Giant Alpecin05:16:24  +  00:39:51=34,893 
168 ITADavide CimolaiITALampre-Merida05:16:24  +  00:39:51=34,893 
169 AUTBernhard EiselZAFDimension Data05:16:24  +  00:39:51=34,893 
170 BELSam BennettDEUBora-Argon 1805:16:24  +  00:39:51=34,893 
171 AUTMarco HallerRUSTeam Katusha05:16:24  +  00:39:51=34,893 
172 NORSondre Holst EngerCHEIAM Cycling05:16:24  +  00:39:51=34,893 
173 NZLGregory HendersonBELLotto Soudal05:16:24  +  00:39:51=34,893 
174 NZLShane ArchboldDEUBora-Argon 1805:16:24  +  00:39:51=34,893 
175 FRAArnold JeannessonFRACofidis – Solutions Crédits05:16:24  +  00:39:51=34,893 
176 FRAJérôme CousinFRACofidis – Solutions Crédits05:16:24  +  00:39:51=34,893 
177 FRAArmindo FonsecaFRAFortuneo - Vital Concept05:17:49  +  00:41:16=34,737 
178 ENGDaniel McLayFRAFortuneo - Vital Concept05:17:49  +  00:41:16=34,737 
179 NORVegard BreenFRAFortuneo - Vital Concept05:17:52  +  00:41:19=34,732 

Withdrawls: 3
 
Rider
Team
Reason
16  ESPGorka Izaguirre InsaustiESPMovistar TeamDid not finish
95  AUSRohan DennisUSABMC Racing TeamDid not start
192  SLOBorut BozicFRACofidis – Solutions CréditsDid not finish

Todays birthdays.

1873  Charles Perraud
1890  Marcel Perriere
1896  Arthur Targez
1903  François Menta
1911  Emil Kijewski
1937  Rudolf Hauser
1942  Johny Schleck
1943  Mario Anni
1947  Fernando Plaza
1956  Jorge Ruiz
1959  Fabio Parra Pinto
1965  José Roncancio
1967  Roland Meier
1970  Daniele Sgnaolin